Change the Weather History Date:

Tuesday, November 6, 2012

  Actual Average Record
Temperature  
Mean Temperature 46 °F -  
Max Temperature 68 °F 55 °F 73 °F (1976)
Min Temperature 23 °F 26 °F 6 °F (1961)
Degree Days  
Heating Degree Days 20    
Moisture  
Dew Point 27 °F    
Average Humidity 75    
Maximum Humidity 100    
Minimum Humidity 20    
Precipitation  
Precipitation 0.00 in - - ()
Sea Level Pressure  
Sea Level Pressure 30.34 in    
Wind  
Wind Speed 1 mph (SSW)    
Max Wind Speed 12 mph    
Max Gust Speed -    
Visibility 7 miles    
Events Fog    
Averages and records for this station are not official NWS values.
T = Trace of Precipitation, MM = Missing Value Source: NWS Daily Summary

Daily Weather History Graph

Daily Weather History Graph

Search for Another Location

Airport or City:

Trip Planner

Search our weather history database for the weather conditions in past years. The results will help you decide how hot, cold, wet, or windy it might be!

Date:

Astronomy

Nov. 06, 2012 Rise Set
Actual Time 6:34 AM PST 4:53 PM PST
Civil Twilight 6:06 AM PST 5:21 PM PST
Nautical Twilight 5:34 AM PST 5:53 PM PST
Astronomical Twilight 5:03 AM PST 6:24 PM PST
Moon 11:37 PM PST (11/6) 12:29 PM PST (11/6)
Length of Visible Light 11h 14m
Length of Day
10h 18m
Waning Gibbous, 52% of the Moon is Illuminated
Nov 6
Waning Gibbous
Nov 6
Last Quarter
Nov 13
New
Nov 20
First Quarter
Nov 28
Full

Hourly Weather History & Observations

Time (PST) Temp. Windchill Dew Point Humidity Pressure Visibility Wind Dir Wind Speed Gust Speed Precip Events Conditions
12:15 AM 30.2 °F - 28.4 °F 93% 30.40 in 10.0 mi Calm Calm - N/A   Clear
12:35 AM 30.2 °F - 28.4 °F 93% 30.39 in 10.0 mi Calm Calm - N/A   Clear
12:55 AM 28.4 °F - 28.4 °F 100% 30.39 in 1.5 mi Calm Calm - N/A   Clear
1:15 AM 28.4 °F - 28.4 °F 100% 30.39 in 1.5 mi Calm Calm - N/A   Clear
1:35 AM 28.4 °F - 26.6 °F 93% 30.39 in 1.2 mi Calm Calm - N/A   Clear
1:55 AM 28.4 °F - 26.6 °F 93% 30.39 in 0.5 mi Calm Calm - N/A Fog Light Freezing Fog
2:15 AM 28.4 °F - 28.4 °F 100% 30.39 in 3.0 mi Calm Calm - N/A   Clear
2:35 AM 26.6 °F - 26.6 °F 100% 30.39 in 0.5 mi Calm Calm - N/A Fog Light Freezing Fog
2:55 AM 24.8 °F - 23.0 °F 93% 30.39 in 0.2 mi Calm Calm - N/A Fog Light Freezing Fog
3:15 AM 26.6 °F - 26.6 °F 100% 30.38 in 0.5 mi Calm Calm - N/A Fog Light Freezing Fog
3:35 AM 26.6 °F - 24.8 °F 93% 30.38 in 0.2 mi Calm Calm - N/A Fog Light Freezing Fog
3:55 AM 24.8 °F - 23.0 °F 93% 30.38 in 0.2 mi Calm Calm - N/A Fog Light Freezing Fog
4:15 AM 24.8 °F - 24.8 °F 100% 30.38 in 0.2 mi Calm Calm - N/A Fog Light Freezing Fog
4:35 AM 26.6 °F - 24.8 °F 93% 30.38 in 0.2 mi Calm Calm - N/A Fog Light Freezing Fog
4:55 AM 24.8 °F - 24.8 °F 100% 30.39 in 0.2 mi Calm Calm - N/A Fog Light Freezing Fog
5:15 AM 26.6 °F - 24.8 °F 93% 30.38 in 0.2 mi Calm Calm - N/A Fog Light Freezing Fog
5:35 AM 24.8 °F - 23.0 °F 93% 30.38 in 0.2 mi Calm Calm - N/A Fog Light Freezing Fog
6:50 AM 23.0 °F - 21.2 °F 93% 30.39 in 0.2 mi Calm Calm - N/A Fog Light Freezing Fog
7:45 AM 28.4 °F - 26.6 °F 93% 30.40 in 10.0 mi Calm Calm - N/A   Partly Cloudy
8:50 AM 33.8 °F - 32.0 °F 93% 30.39 in 10.0 mi Calm Calm - N/A   Clear
9:45 AM 42.8 °F - 32.0 °F 66% 30.38 in 10.0 mi Calm Calm - N/A   Clear
10:45 AM 51.8 °F - 33.8 °F 50% 30.35 in 10.0 mi Calm Calm - N/A   Clear
11:45 AM 60.8 °F - 35.6 °F 39% 30.33 in 10.0 mi Calm Calm - N/A   Clear
12:45 PM 68.0 °F - 28.4 °F 23% 30.29 in 10.0 mi WSW 5.8 mph - N/A   Clear
1:55 PM 68.0 °F - 24.8 °F 20% 30.28 in 10.0 mi WSW 9.2 mph - N/A   Clear
2:50 PM 68.0 °F - 24.8 °F 20% 30.28 in 10.0 mi SW 11.5 mph - N/A   Clear
4:55 PM 55.4 °F - 26.6 °F 33% 30.28 in 10.0 mi SW 5.8 mph - N/A   Clear
5:15 PM 50.0 °F - 30.2 °F 47% 30.28 in 10.0 mi East 3.5 mph - N/A   Clear
5:35 PM 48.2 °F - 28.4 °F 46% 30.29 in 10.0 mi SSE 6.9 mph - N/A   Clear
5:55 PM 46.4 °F 42.9 °F 28.4 °F 50% 30.28 in 10.0 mi SSE 6.9 mph - N/A   Clear
6:15 PM 41.0 °F 38.0 °F 30.2 °F 65% 30.29 in 10.0 mi South 4.6 mph - N/A   Clear
6:35 PM 42.8 °F - 30.2 °F 61% 30.29 in 10.0 mi Calm Calm - N/A   Clear
6:55 PM 44.6 °F - 28.4 °F 53% 30.29 in 10.0 mi Calm Calm - N/A   Clear
7:15 PM 41.0 °F - 28.4 °F 61% 30.29 in 10.0 mi Calm Calm - N/A   Clear
7:35 PM 41.0 °F - 28.4 °F 61% 30.29 in 10.0 mi Calm Calm - N/A   Clear
7:55 PM 39.2 °F - 28.4 °F 65% 30.29 in 10.0 mi Calm Calm - N/A   Clear
8:15 PM 37.4 °F - 26.6 °F 65% 30.30 in 10.0 mi Calm Calm - N/A   Clear
8:35 PM 37.4 °F - 26.6 °F 65% 30.30 in 10.0 mi Calm Calm - N/A   Clear
8:55 PM 35.6 °F - 26.6 °F 70% 30.30 in 10.0 mi Calm Calm - N/A   Clear
9:15 PM 35.6 °F - 28.4 °F 75% 30.31 in 10.0 mi Calm Calm - N/A   Clear
9:35 PM 32.0 °F 28.7 °F 26.6 °F 80% 30.31 in 10.0 mi South 3.5 mph - N/A   Clear
9:55 PM 32.0 °F - 26.6 °F 80% 30.31 in 10.0 mi Calm Calm - N/A   Clear
10:15 PM 33.8 °F - 26.6 °F 75% 30.30 in 10.0 mi Calm Calm - N/A   Clear
10:35 PM 32.0 °F - 26.6 °F 80% 30.30 in 10.0 mi Calm Calm - N/A   Clear
10:55 PM 32.0 °F - 24.8 °F 75% 30.30 in 10.0 mi Calm Calm - N/A   Clear
11:15 PM 26.6 °F - 23.0 °F 86% 30.30 in 10.0 mi Calm Calm - N/A   Clear
11:35 PM 32.0 °F - 26.6 °F 80% 30.29 in 10.0 mi Calm Calm - N/A   Clear
11:55 PM 32.0 °F - 26.6 °F 80% 30.29 in 10.0 mi Calm Calm - N/A   Clear